Location: PACMO
(41.3967°N, 90.3760°W)
Time: 20:28:40
(UTC-05:00)

Amateur Radio Satellites - All Passes

Search period start: 30 September 2016 19:58
Search period end: 01 October 2016 19:58
Location: PACMO, 41.3967°N, 90.3760°W

Satellite Date Start Highest point End Downlink Frequencies (MHz)
Time Altitude Azimuth
SEEDS 30 Sep 20:01:22 20:05:26 50° 73° (ENE) 20:09:34 437.485
CUSAT 1 30 Sep 20:01:54 20:08:14 47° 288° (WNW) 20:15:45 437.405
UWE-3 30 Sep 20:05:38 20:08:37 20° 67° (ENE) 20:11:37 435.000/436.395/437.385
CUTE 1.7 + AOD 2 30 Sep 20:05:39 20:09:53 83° 77° (ENE) 20:14:11 437.475
CANX-2 30 Sep 20:07:34 20:11:48 81° 258° (WSW) 20:16:07 2200.000
AAUSAT CUBESAT 2 30 Sep 20:14:57 20:18:48 38° 71° (ENE) 20:22:42 437.432
NOAA 18 30 Sep 20:17:14 20:19:52 14° 270° (W) 20:22:31 137.9125
Oscar 11 30 Sep 20:19:42 20:22:39 18° 66° (ENE) 20:25:38 145.826/435.025
DANDE 30 Sep 20:21:03 20:26:29 73° 282° (WNW) 20:33:43 436.750
ZACube-1 30 Sep 20:27:34 20:30:43 21° 67° (ENE) 20:33:53 437.345
Cosmos 2499 30 Sep 20:38:28 20:46:02 66° 267° (W) 20:54:11 435.465 / 435.565
STRAND 1 30 Sep 20:43:04 20:48:14 72° 287° (WNW) 20:53:22 437.568
CINEMA 3 30 Sep 20:44:14 20:47:58 26° 264° (W) 20:51:36 145.822/145.860
COMPASS 1 30 Sep 21:02:19 21:06:21 46° 261° (W) 21:10:25 437.405
GONETS M04 30 Sep 21:07:30 21:15:33 42° 273° (W) 21:23:32
DELFI C3 30 Sep 21:08:17 21:11:27 23° 68° (ENE) 21:14:36 145.870
ISS 30 Sep 21:09:04 21:11:49 25° 338° (NNW) 21:14:36 145.825
HO-68 30 Sep 21:09:33 21:15:52 33° 264° (W) 21:22:12 435.675
AO-85 30 Sep 21:16:39 21:21:45 56° 306° (NW) 21:26:32 145.980
FUNcube-1 30 Sep 21:18:39 21:22:45 75° 77° (ENE) 21:26:54 145.935
CUBEBUG 2 30 Sep 21:30:02 21:33:42 29° 264° (W) 21:37:22 437.445
PRISM 30 Sep 21:36:14 21:40:08 39° 99° (E) 21:43:59 437.425
SEEDS 30 Sep 21:39:20 21:41:26 13° 269° (W) 21:43:33 437.485
UWE-3 30 Sep 21:41:06 21:44:52 34° 263° (W) 21:48:39 435.000/436.395/437.385
RS-15 30 Sep 21:45:10 21:56:23 48° 318° (NW) 22:08:10 29.354- 29.394
AAUSAT CUBESAT 2 30 Sep 21:51:36 21:54:25 17° 268° (W) 21:57:15 437.432
Oscar 11 30 Sep 21:54:25 21:58:29 41° 262° (W) 22:02:35 145.826/435.025
HUMSAT D 30 Sep 21:54:34 21:58:20 37° 71° (ENE) 22:02:10 437.325/437.525
ANTELSAT 30 Sep 22:02:48 22:03:59 11° 90° (E) 22:05:10 437.575/2403.000
ZACube-1 30 Sep 22:03:10 22:06:50 31° 264° (W) 22:10:32 437.345
DANDE 30 Sep 22:08:16 22:11:03 13° 307° (NW) 22:14:06 436.750
TIGRISAT 30 Sep 22:20:52 22:23:45 17° 93° (E) 22:26:41 435.000
SO-50 30 Sep 22:27:41 22:31:10 21° 43° (NE) 22:34:35 436.795
Cosmos 2499 30 Sep 22:36:55 22:37:44 10° 284° (WNW) 22:38:34 435.465 / 435.565
DELFI C3 30 Sep 22:42:41 22:46:08 27° 264° (W) 22:49:37 145.870
ISS 30 Sep 22:47:23 22:49:10 14° 358° (N) 22:50:57 145.825
UNISAT 6 30 Sep 23:01:28 23:05:48 49° 100° (E) 23:10:11 437.425
AO-85 30 Sep 23:01:39 23:03:09 11° 325° (NW) 23:04:37 145.980
CUBEBUG 1 30 Sep 23:08:39 23:12:19 26° 68° (ENE) 23:15:59 437.445
PRISM 30 Sep 23:12:24 23:15:07 17° 295° (WNW) 23:17:50 437.425
50 SAT 30 Sep 23:13:15 23:15:44 18° 67° (ENE) 23:18:14 437.505
VELOX 1 30 Sep 23:13:21 23:16:52 23° 67° (ENE) 23:20:23 145.980
BEESAT 3 30 Sep 23:21:50 23:23:19 12° 109° (ESE) 23:24:48 437.485
ESTCUBE 1 30 Sep 23:27:13 23:31:42 65° 74° (ENE) 23:36:13 437.505/2401.250
HUMSAT D 30 Sep 23:31:24 23:34:06 17° 267° (W) 23:36:50 437.325/437.525
DUCHIFAT 1 30 Sep 23:31:34 23:32:16 10° 90° (E) 23:32:57 145.980
SPROUT 30 Sep 23:34:12 23:37:21 20° 66° (ENE) 23:40:30 437.525
QB50P1 30 Sep 23:36:00 23:38:18 14° 92° (E) 23:40:35 145.935-145.965
ANTELSAT 30 Sep 23:36:40 23:41:06 70° 285° (WNW) 23:45:37 437.575/2403.000
AUBIESAT-1 30 Sep 23:37:36 23:40:58 28° 66° (ENE) 23:44:08 437.475
POPSAT HIP 1 30 Sep 23:49:11 23:52:17 20° 94° (E) 23:55:22 437.405
UKube-1 30 Sep 23:54:26 23:58:13 30° 69° (ENE) 00:02:00 .
TIGRISAT 30 Sep 23:56:25 00:00:38 45° 288° (WNW) 00:04:57 435.000
NANOSAT C BR1 01 Oct 00:02:45 00:06:19 26° 96° (E) 00:09:53 145.865
RS-15 01 Oct 00:03:50 00:13:06 24° 350° (N) 00:22:34 29.354- 29.394
AISAT 01 Oct 00:05:16 00:09:44 87° 73° (ENE) 00:14:11 437.250
SO-50 01 Oct 00:07:31 00:11:58 54° 242° (WSW) 00:16:18 436.795
M-CUBED/EXP-1 PRIME 01 Oct 00:17:14 00:21:18 77° 253° (WSW) 00:25:04 437.505
BEESAT 2 01 Oct 00:22:13 00:25:34 27° 114° (ESE) 00:28:59 435.950
ISS 01 Oct 00:24:01 00:26:36 21° 19° (NNE) 00:29:10 145.825
DX 1 01 Oct 00:28:57 00:33:20 86° 259° (WSW) 00:37:44 434.975-435.025
QB50P2 01 Oct 00:29:01 00:33:12 61° 100° (E) 00:37:24 145.880/145.840
POLYITAN 1 01 Oct 00:31:10 00:35:22 61° 101° (E) 00:39:34 437.675
JAS-2 01 Oct 00:34:10 00:41:52 55° 98° (E) 00:49:04 435.910
UNISAT 6 01 Oct 00:39:19 00:42:08 17° 295° (WNW) 00:45:00 437.425
TISAT 1 01 Oct 00:42:07 00:45:22 22° 67° (ENE) 00:48:37 437.305
CUBEBUG 1 01 Oct 00:44:40 00:48:30 29° 264° (W) 00:52:20 437.445
50 SAT 01 Oct 00:45:48 00:49:00 29° 263° (W) 00:52:15 437.505
VELOX 1 01 Oct 00:49:08 00:53:09 33° 263° (W) 00:57:12 145.980
BUGSAT 1 01 Oct 00:52:43 00:56:26 35° 98° (E) 01:00:08 437.445
Cosmos 2491 01 Oct 00:54:27 01:02:00 30° 68° (ENE) 01:09:27 435.465 / 435.565
BEESAT 3 01 Oct 00:56:36 01:00:27 58° 305° (NW) 01:04:21 437.485
DUCHIFAT 1 01 Oct 01:04:12 01:08:22 65° 286° (WNW) 01:12:31 145.980
ESTCUBE 1 01 Oct 01:07:11 01:08:56 12° 270° (W) 01:10:42 437.505/2401.250
SPROUT 01 Oct 01:09:08 01:13:03 35° 263° (W) 01:16:58 437.525
QB50P1 01 Oct 01:10:16 01:14:19 48° 287° (WNW) 01:18:23 145.935-145.965
AUBIESAT-1 01 Oct 01:12:19 01:15:24 21° 259° (WSW) 01:18:19 437.475
SWISSCUBE 01 Oct 01:15:47 01:18:07 14° 61° (ENE) 01:20:29 437.505
POPSAT HIP 1 01 Oct 01:24:20 01:28:08 34° 290° (WNW) 01:31:58 437.405
BEESAT 01 Oct 01:27:44 01:30:38 16° 62° (ENE) 01:33:31 436.000
UKube-1 01 Oct 01:30:44 01:34:14 24° 265° (W) 01:37:46 .
NANOSAT C BR1 01 Oct 01:38:29 01:41:58 26° 292° (WNW) 01:45:26 145.865
YUBILEINY 01 Oct 01:53:47 02:00:46 28° 82° (E) 02:07:44 435.215
BEESAT 2 01 Oct 01:59:55 02:03:20 27° 311° (NW) 02:06:47 435.950
ISS 01 Oct 02:00:07 02:03:24 82° 219° (SW) 02:06:41 145.825
Gurwin Techsat 1B 01 Oct 02:04:21 02:08:15 20° 93° (E) 02:12:08 435.225
QB50P2 01 Oct 02:06:41 02:08:30 13° 297° (WNW) 02:10:18 145.880/145.840
POLYITAN 1 01 Oct 02:08:51 02:10:40 13° 297° (WNW) 02:12:29 437.675
TISAT 1 01 Oct 02:17:08 02:20:51 30° 263° (W) 02:24:34 437.305
Oscar 19 01 Oct 02:17:25 02:22:29 56° 101° (E) 02:27:30 437.125/150
JAS-2 01 Oct 02:19:38 02:26:27 34° 298° (WNW) 02:32:57 435.910
RS-15 01 Oct 02:20:43 02:31:12 30° 26° (NNE) 02:41:36 29.354- 29.394
BUGSAT 1 01 Oct 02:28:46 02:31:33 18° 294° (WNW) 02:34:21 437.445
Cosmos 2504 01 Oct 02:34:26 02:38:08 15° 79° (ENE) 02:41:47 435.465 / 435.565
ITUPSAT 1 01 Oct 02:39:24 02:44:09 79° 75° (ENE) 02:48:58 437.325
SWISSCUBE 01 Oct 02:50:34 02:55:19 71° 258° (WSW) 03:00:06 437.505
Cosmos 2491 01 Oct 02:50:43 02:59:23 62° 269° (W) 03:07:58 435.465 / 435.565
BEESAT 01 Oct 03:03:14 03:07:55 58° 259° (W) 03:12:39 436.000
PCSat 01 Oct 03:12:29 03:16:52 26° 108° (ESE) 03:21:16 145.827
AIST 2 01 Oct 03:13:41 03:17:44 67° 119° (ESE) 03:21:51 435.215
ITAMSAT 1 01 Oct 03:18:36 03:23:01 27° 95° (E) 03:27:24 435.822/435.867
Gurwin Techsat 1B 01 Oct 03:43:20 03:48:28 51° 289° (WNW) 03:53:35 435.225
YUBILEINY 01 Oct 03:48:11 03:56:52 64° 281° (WNW) 04:05:34 435.215
AO-7 01 Oct 03:51:10 03:58:23 32° 96° (E) 04:05:33 29.400- 29.500
CUBESAT XI-V 01 Oct 03:53:58 03:55:37 12° 61° (ENE) 03:57:15 437.345
Oscar 19 01 Oct 03:57:48 04:01:21 19° 298° (WNW) 04:04:53 437.125/150
KKS-1 01 Oct 03:58:04 04:02:25 57° 73° (ENE) 04:06:47 437.445
MOZHAYETS 4 01 Oct 03:58:16 04:02:50 88° 77° (ENE) 04:07:28
AO-85 01 Oct 04:09:17 04:11:58 16° 40° (NE) 04:14:33 145.980
ITUPSAT 1 01 Oct 04:21:33 04:22:32 11° 271° (W) 04:23:33 437.325
STARS 01 Oct 04:22:00 04:26:13 49° 72° (ENE) 04:30:27 437.465
Cosmos 2504 01 Oct 04:23:04 04:30:27 87° 279° (W) 04:37:39 435.465 / 435.565
RS-15 01 Oct 04:33:50 04:46:17 75° 54° (NE) 04:58:25 29.354- 29.394
AIST 2 01 Oct 04:54:08 04:56:39 16° 318° (NW) 04:59:11 435.215
PCSat 01 Oct 04:54:47 04:59:59 46° 305° (NW) 05:05:13 145.827
CUSAT 1 01 Oct 04:55:25 05:01:37 27° 64° (ENE) 05:06:56 437.405
ITAMSAT 1 01 Oct 04:57:45 05:02:32 38° 292° (WNW) 05:07:19 435.822/435.867
AIST 1 01 Oct 04:59:52 05:04:07 52° 94° (E) 05:08:23
HORYU 2 01 Oct 05:10:16 05:12:51 15° 92° (E) 05:15:25 437.375
DANDE 01 Oct 05:17:33 05:23:40 22° 61° (ENE) 05:29:26 436.750
CUBESAT XI-V 01 Oct 05:27:35 05:32:17 82° 257° (WSW) 05:37:03 437.345
KKS-1 01 Oct 05:37:12 05:39:19 13° 269° (W) 05:41:27 437.445
AO-7 01 Oct 05:43:25 05:51:29 58° 295° (WNW) 05:59:32 29.400- 29.500
O/OREOS (USA 219) 01 Oct 05:44:50 05:46:46 13° 98° (E) 05:48:43 437.305
AO-85 01 Oct 05:48:46 05:52:50 59° 241° (WSW) 05:56:39 145.980
YUBILEINY 01 Oct 05:52:20 05:55:40 12° 304° (NW) 05:59:02 435.215
STARS 01 Oct 06:00:20 06:02:51 15° 268° (W) 06:05:21 437.465
GOMX 1 01 Oct 06:13:50 06:16:31 16° 91° (E) 06:19:07 467.674
Cosmos 2504 01 Oct 06:21:05 06:24:54 15° 298° (WNW) 06:28:44 435.465 / 435.565
STRAND 1 01 Oct 06:21:36 06:25:19 21° 63° (ENE) 06:29:03 437.568
CUSAT 1 01 Oct 06:36:53 06:44:14 59° 267° (W) 06:50:12 437.405
AIST 1 01 Oct 06:39:48 06:42:03 14° 291° (WNW) 06:44:18
BRITE-PL 01 Oct 06:42:01 06:46:45 86° 108° (ESE) 06:51:07 437.365/2234.400
HORYU 2 01 Oct 06:45:21 06:49:40 51° 288° (WNW) 06:54:00 437.375
RS-15 01 Oct 06:47:24 06:57:44 34° 256° (WSW) 07:07:53 29.354- 29.394
NOAA 15 01 Oct 06:54:49 06:59:57 49° 100° (E) 07:05:02 137.62
NOAA 18 01 Oct 06:55:27 07:00:19 32° 97° (E) 07:05:09 137.9125
DANDE 01 Oct 06:59:08 07:07:37 89° 262° (W) 07:15:09 436.750
LilacSat-2 01 Oct 07:15:27 07:19:18 75° 102° (ESE) 07:23:09 437.200
O/OREOS (USA 219) 01 Oct 07:21:03 07:25:34 63° 294° (WNW) 07:30:09 437.305
CUTE-I 01 Oct 07:23:03 07:28:26 74° 103° (ESE) 07:33:48 437.470
Cubesat XI-IV 01 Oct 07:24:07 07:29:30 74° 103° (ESE) 07:34:52 437.490
Cosmos 2499 01 Oct 07:26:17 07:30:23 16° 80° (E) 07:34:27 435.465 / 435.565
BEESAT 3 01 Oct 07:38:05 07:39:10 11° 38° (NE) 07:40:13 437.485
AO-7 01 Oct 07:38:55 07:42:31 14° 316° (NW) 07:46:06 29.400- 29.500
GOMX 1 01 Oct 07:50:48 07:54:53 40° 289° (WNW) 07:58:47 467.674
CUTE 1.7 + AOD 2 01 Oct 07:51:53 07:54:17 15° 91° (E) 07:56:40 437.475
DOVE 4 01 Oct 07:53:00 07:57:12 85° 107° (ESE) 08:01:20 437.250
CANX-2 01 Oct 07:53:29 07:56:24 18° 92° (E) 07:59:18 2200.000
STRAND 1 01 Oct 07:59:11 08:04:07 50° 260° (W) 08:09:06 437.568
GONETS M04 01 Oct 08:11:19 08:19:41 50° 89° (E) 08:28:04
BRITE-PL 01 Oct 08:23:52 08:24:22 10° 302° (WNW) 08:24:51 437.365/2234.400
PRISM 01 Oct 08:25:38 08:29:15 30° 69° (ENE) 08:32:54 437.425
NOAA 15 01 Oct 08:35:21 08:39:23 22° 297° (WNW) 08:43:23 137.62
HO-68 01 Oct 08:35:59 08:42:54 49° 100° (E) 08:49:46 435.675
NOAA 18 01 Oct 08:36:02 08:40:57 35° 293° (WNW) 08:45:52 137.9125
CINEMA 3 01 Oct 08:37:30 08:41:42 66° 102° (ESE) 08:45:59 145.822/145.860
BEESAT 2 01 Oct 08:39:55 08:42:58 20° 45° (NE) 08:45:59 435.950
DANDE 01 Oct 08:43:49 08:49:09 19° 281° (W) 08:54:11 436.750
COMPASS 1 01 Oct 08:45:14 08:48:48 26° 95° (E) 08:52:21 437.405
PHONESAT 2.4 01 Oct 08:46:27 08:47:55 13° 150° (SSE) 08:49:23 2401.200-2431.200
CUTE-I 01 Oct 09:04:44 09:07:51 16° 300° (WNW) 09:10:59 437.470
Cubesat XI-IV 01 Oct 09:05:50 09:08:56 16° 300° (WNW) 09:12:01 437.490
FUNcube-1 01 Oct 09:07:34 09:10:01 15° 92° (E) 09:12:30 145.935
BEESAT 3 01 Oct 09:13:29 09:17:29 80° 56° (ENE) 09:21:27 437.485
Cosmos 2499 01 Oct 09:15:25 09:22:31 79° 279° (W) 09:29:38 435.465 / 435.565
CUBEBUG 2 01 Oct 09:19:35 09:23:49 51° 100° (E) 09:28:09 437.445
SEEDS 01 Oct 09:20:29 09:24:46 82° 283° (WNW) 09:29:00 437.485
TIGRISAT 01 Oct 09:20:31 09:22:54 15° 64° (ENE) 09:25:16 435.000
CUTE 1.7 + AOD 2 01 Oct 09:26:14 09:30:23 48° 287° (WNW) 09:34:31 437.475
CANX-2 01 Oct 09:28:22 09:32:25 40° 288° (WNW) 09:36:25 2200.000
UWE-3 01 Oct 09:29:42 09:33:52 43° 99° (E) 09:38:07 435.000/436.395/437.385
AAUSAT CUBESAT 2 01 Oct 09:32:01 09:36:13 72° 101° (ESE) 09:40:22 437.432
Oscar 11 01 Oct 09:41:21 09:45:21 34° 97° (E) 09:49:20 145.826/435.025
ZACube-1 01 Oct 09:50:23 09:54:36 46° 99° (E) 09:58:54 437.345
UNISAT 6 01 Oct 10:00:30 10:04:30 41° 72° (ENE) 10:08:31 437.425
PRISM 01 Oct 10:01:14 10:04:33 23° 265° (W) 10:07:53 437.425
GONETS M04 01 Oct 10:08:40 10:16:40 37° 289° (WNW) 10:24:46
CINEMA 3 01 Oct 10:16:55 10:18:20 11° 297° (WNW) 10:19:45 145.822/145.860
BEESAT 2 01 Oct 10:17:09 10:20:57 42° 243° (WSW) 10:24:45 435.950
DELFI C3 01 Oct 10:19:33 10:23:14 34° 97° (E) 10:26:54 145.870
PHONESAT 2.4 01 Oct 10:20:45 10:23:33 47° 165° (SSE) 10:26:24 2401.200-2431.200
COMPASS 1 01 Oct 10:20:46 10:24:16 26° 291° (WNW) 10:27:45 437.405
HO-68 01 Oct 10:24:08 10:30:20 33° 298° (WNW) 10:36:33 435.675
QB50P1 01 Oct 10:29:44 10:31:12 12° 62° (ENE) 10:32:40 145.935-145.965
ANTELSAT 01 Oct 10:35:27 10:39:42 80° 259° (W) 10:43:58 437.575/2403.000
FUNcube-1 01 Oct 10:42:17 10:46:31 51° 287° (WNW) 10:50:50 145.935
POPSAT HIP 1 01 Oct 10:42:26 10:44:59 16° 65° (ENE) 10:47:31 437.405
JAS-2 01 Oct 10:46:43 10:52:09 26° 59° (ENE) 10:58:01 435.910
TIGRISAT 01 Oct 10:55:02 10:59:10 50° 260° (W) 11:03:19 435.000
NANOSAT C BR1 01 Oct 10:55:19 10:58:26 21° 67° (ENE) 11:01:33 145.865
CUBEBUG 2 01 Oct 10:57:30 11:00:03 16° 295° (WNW) 11:02:39 437.445
UWE-3 01 Oct 11:07:03 11:10:01 18° 294° (WNW) 11:13:02 435.000/436.395/437.385
AAUSAT CUBESAT 2 01 Oct 11:10:06 11:11:05 11° 298° (WNW) 11:12:03 437.432
HUMSAT D 01 Oct 11:12:42 11:16:58 73° 101° (E) 11:21:15 437.325/437.525
Cosmos 2499 01 Oct 11:14:04 11:16:57 13° 300° (WNW) 11:19:50 435.465 / 435.565
Oscar 11 01 Oct 11:17:56 11:21:17 22° 293° (WNW) 11:24:36 145.826/435.025
ESTCUBE 1 01 Oct 11:21:18 11:23:35 14° 91° (E) 11:25:51 437.505/2401.250
QB50P2 01 Oct 11:21:30 11:25:30 44° 72° (ENE) 11:29:31 145.880/145.840
POLYITAN 1 01 Oct 11:23:41 11:27:40 44° 72° (ENE) 11:31:40 437.675
ZACube-1 01 Oct 11:27:42 11:30:33 17° 294° (WNW) 11:33:27 437.345
AIST 2 01 Oct 11:34:54 11:38:56 44° 53° (NE) 11:42:57 435.215
UNISAT 6 01 Oct 11:38:42 11:41:24 16° 268° (W) 11:44:08 437.425
BUGSAT 1 01 Oct 11:42:42 11:46:03 25° 69° (ENE) 11:49:24 437.445
DELFI C3 01 Oct 11:55:02 11:57:49 18° 293° (WNW) 12:00:35 145.870
DUCHIFAT 1 01 Oct 11:55:39 11:59:50 90° 279° (W) 12:04:02 145.980
AISAT 01 Oct 11:56:34 11:59:17 16° 92° (E) 12:01:59 437.250
PHONESAT 2.4 01 Oct 11:56:37 11:59:32 75° 182° (S) 12:02:28 2401.200-2431.200
Oscar 19 01 Oct 11:59:27 12:00:51 11° 58° (ENE) 12:02:16 437.125/150
PCSat 01 Oct 11:59:34 12:03:57 24° 47° (NE) 12:08:18 145.827
QB50P1 01 Oct 12:02:15 12:06:25 66° 259° (WSW) 12:10:36 145.935-145.965
YUBILEINY 01 Oct 12:04:29 12:08:06 13° 56° (ENE) 12:11:40 435.215
50 SAT 01 Oct 12:13:27 12:16:10 20° 94° (E) 12:18:53 437.505
POPSAT HIP 1 01 Oct 12:16:22 12:20:23 45° 261° (W) 12:24:26 437.405
DX 1 01 Oct 12:18:17 12:20:58 16° 93° (E) 12:23:36 434.975-435.025
JAS-2 01 Oct 12:29:52 12:36:26 66° 259° (W) 12:43:53 435.910
NANOSAT C BR1 01 Oct 12:30:10 12:33:57 33° 263° (W) 12:37:46 145.865
CUBEBUG 1 01 Oct 12:32:27 12:36:40 49° 100° (E) 12:40:51 437.445
VELOX 1 01 Oct 12:38:38 12:42:51 43° 99° (E) 12:47:01 145.980
AUBIESAT-1 01 Oct 12:50:27 12:52:33 16° 100° (E) 12:54:40 437.475
HUMSAT D 01 Oct 12:50:48 12:51:59 11° 298° (WNW) 12:53:12 437.325/437.525
SPROUT 01 Oct 12:54:34 12:58:31 36° 98° (E) 13:02:27 437.525
ESTCUBE 1 01 Oct 12:56:17 13:00:45 57° 287° (WNW) 13:05:10 437.505/2401.250
QB50P2 01 Oct 12:59:04 13:01:31 15° 268° (W) 13:03:59 145.880/145.840
POLYITAN 1 01 Oct 13:01:16 13:03:41 15° 268° (W) 13:06:08 437.675
AO-7 01 Oct 13:06:01 13:07:09 10° 40° (NE) 13:08:18 29.400- 29.500
AIST 2 01 Oct 13:14:12 13:17:05 18° 249° (WSW) 13:19:58 435.215
UKube-1 01 Oct 13:16:40 13:20:54 53° 101° (E) 13:25:06 .
BUGSAT 1 01 Oct 13:17:57 13:21:21 25° 264° (W) 13:24:44 437.445
Gurwin Techsat 1B 01 Oct 13:25:15 13:29:56 33° 67° (ENE) 13:34:39 435.225
M-CUBED/EXP-1 PRIME 01 Oct 13:30:26 13:33:42 72° 108° (ESE) 13:37:01 437.505
AISAT 01 Oct 13:31:47 13:35:59 46° 288° (WNW) 13:40:10 437.250
PHONESAT 2.4 01 Oct 13:32:43 13:35:28 37° 198° (SSW) 13:38:13 2401.200-2431.200
Oscar 19 01 Oct 13:34:07 13:39:19 81° 75° (ENE) 13:44:32 437.125/150
PCSat 01 Oct 13:42:23 13:47:41 56° 246° (WSW) 13:52:57 145.827
50 SAT 01 Oct 13:46:34 13:49:38 25° 290° (WNW) 13:52:40 437.505
DX 1 01 Oct 13:53:13 13:57:22 45° 289° (WNW) 14:01:29 434.975-435.025
Cosmos 2491 01 Oct 13:56:09 14:03:41 34° 84° (E) 14:11:16 435.465 / 435.565
YUBILEINY 01 Oct 13:58:10 14:06:50 66° 79° (E) 14:15:27 435.215
TISAT 1 01 Oct 14:00:24 14:04:16 37° 98° (E) 14:08:08 437.305
CUBEBUG 1 01 Oct 14:09:59 14:12:32 16° 296° (WNW) 14:15:06 437.445
Cosmos 2504 01 Oct 14:14:36 14:21:16 33° 72° (ENE) 14:28:17 435.465 / 435.565
VELOX 1 01 Oct 14:16:00 14:18:58 18° 295° (WNW) 14:21:57 145.980
SO-50 01 Oct 14:21:07 14:25:45 47° 117° (ESE) 14:30:22 436.795
AUBIESAT-1 01 Oct 14:24:15 14:27:04 26° 294° (WNW) 14:29:55 437.475
SPROUT 01 Oct 14:31:07 14:34:12 20° 294° (WNW) 14:37:17 437.525
ITAMSAT 1 01 Oct 14:36:29 14:41:19 42° 69° (ENE) 14:46:11 435.822/435.867
ITUPSAT 1 01 Oct 14:40:37 14:44:10 20° 93° (E) 14:47:41 437.325
AO-7 01 Oct 14:50:04 14:57:49 46° 62° (ENE) 15:05:34 29.400- 29.500
SWISSCUBE 01 Oct 14:50:58 14:55:08 29° 96° (E) 14:59:17 437.505
UKube-1 01 Oct 14:54:06 14:56:29 15° 297° (WNW) 14:58:52 .
BEESAT 01 Oct 15:03:19 15:07:42 34° 97° (E) 15:12:03 436.000
Gurwin Techsat 1B 01 Oct 15:05:09 15:09:50 32° 264° (W) 15:14:33 435.225
AIST 1 01 Oct 15:08:18 15:10:25 13° 69° (ENE) 15:12:30
Oscar 19 01 Oct 15:17:22 15:19:14 12° 271° (W) 15:21:05 437.125/150
TISAT 1 01 Oct 15:36:43 15:39:39 19° 294° (WNW) 15:42:34 437.305
Cosmos 2491 01 Oct 15:51:33 16:00:06 54° 284° (WNW) 16:08:44 435.465 / 435.565
KKS-1 01 Oct 15:51:42 15:52:33 10° 90° (E) 15:53:24 437.445
O/OREOS (USA 219) 01 Oct 15:52:11 15:56:05 26° 58° (ENE) 15:59:56 437.305
MOZHAYETS 4 01 Oct 15:53:54 15:57:25 21° 93° (E) 16:00:55
YUBILEINY 01 Oct 15:56:06 16:02:52 26° 279° (W) 16:09:38 435.215
SO-50 01 Oct 16:02:28 16:06:27 25° 315° (NW) 16:10:23 436.795
Cosmos 2504 01 Oct 16:07:37 16:14:48 49° 270° (W) 16:22:26 435.465 / 435.565
HORYU 2 01 Oct 16:08:49 16:11:20 15° 63° (ENE) 16:13:51 437.375
BRITE-PL 01 Oct 16:16:10 16:19:08 15° 61° (ENE) 16:22:03 437.365/2234.400
ITAMSAT 1 01 Oct 16:16:48 16:20:56 24° 266° (W) 16:25:05 435.822/435.867
ITUPSAT 1 01 Oct 16:17:37 16:22:11 44° 289° (WNW) 16:26:44 437.325
SWISSCUBE 01 Oct 16:28:41 16:32:52 31° 292° (WNW) 16:37:03 437.505
NOAA 15 01 Oct 16:39:46 16:41:13 11° 56° (ENE) 16:42:39 137.62
BEESAT 01 Oct 16:41:22 16:45:19 26° 294° (WNW) 16:49:15 436.000
AO-7 01 Oct 16:42:51 16:50:35 42° 260° (W) 16:58:22 29.400- 29.500
AIST 1 01 Oct 16:44:12 16:48:20 51° 267° (W) 16:52:27
CUTE-I 01 Oct 17:07:40 17:10:55 17° 60° (ENE) 17:14:09 437.470
Cubesat XI-IV 01 Oct 17:08:50 17:12:07 17° 61° (ENE) 17:15:24 437.490
GOMX 1 01 Oct 17:20:56 17:25:03 24° 67° (ENE) 17:29:00 467.674
CUBESAT XI-V 01 Oct 17:24:39 17:28:29 25° 94° (E) 17:32:18 437.345
KKS-1 01 Oct 17:25:10 17:29:35 70° 286° (WNW) 17:33:58 437.445
MOZHAYETS 4 01 Oct 17:30:23 17:34:42 39° 289° (WNW) 17:39:01
O/OREOS (USA 219) 01 Oct 17:31:24 17:35:30 32° 256° (WSW) 17:39:33 437.305
HORYU 2 01 Oct 17:43:08 17:47:25 54° 259° (W) 17:51:47 437.375
STARS 01 Oct 17:47:12 17:51:35 85° 283° (WNW) 17:55:58 437.465
BRITE-PL 01 Oct 17:51:12 17:56:54 86° 257° (WSW) 18:02:26 437.365/2234.400
CUSAT 1 01 Oct 17:55:45 18:01:08 26° 83° (E) 18:07:13 437.405
LilacSat-2 01 Oct 17:57:29 18:00:55 35° 72° (ENE) 18:04:23 437.200
NOAA 15 01 Oct 18:14:47 18:20:05 79° 74° (ENE) 18:25:26 137.62
NOAA 18 01 Oct 18:21:41 18:27:03 61° 72° (ENE) 18:32:26 137.9125
GONETS M04 01 Oct 18:21:57 18:28:49 24° 65° (ENE) 18:35:35
DANDE 01 Oct 18:26:58 18:30:17 15° 76° (ENE) 18:33:59 436.750
ISS 01 Oct 18:40:20 18:43:09 28° 136° (SE) 18:45:59 145.825
CUTE-I 01 Oct 18:45:05 18:50:22 69° 258° (WSW) 18:55:41 437.470
CUTE 1.7 + AOD 2 01 Oct 18:46:04 18:47:21 11° 62° (ENE) 18:48:38 437.475
Cubesat XI-IV 01 Oct 18:46:19 18:51:36 68° 257° (WSW) 18:56:55 437.490
CANX-2 01 Oct 18:47:18 18:49:23 14° 63° (ENE) 18:51:30 2200.000
RS-15 01 Oct 18:57:01 19:07:43 47° 109° (ESE) 19:18:56 29.354- 29.394
DOVE 4 01 Oct 18:57:42 19:02:39 86° 78° (ENE) 19:07:19 437.250
GOMX 1 01 Oct 18:57:47 19:02:52 44° 262° (W) 19:07:44 467.674
CUBESAT XI-V 01 Oct 19:01:41 19:05:54 33° 291° (WNW) 19:10:02 437.345
HO-68 01 Oct 19:04:48 19:11:14 38° 63° (ENE) 19:17:40 435.675
Cosmos 2499 01 Oct 19:05:08 19:12:08 37° 73° (ENE) 19:19:36 435.465 / 435.565
LilacSat-2 01 Oct 19:33:05 19:35:21 15° 268° (W) 19:37:37 437.200
BRITE-PL 01 Oct 19:34:17 19:36:00 11° 273° (W) 19:37:41 437.365/2234.400
CUSAT 1 01 Oct 19:35:48 19:42:24 63° 284° (WNW) 19:50:13 437.405
COMPASS 1 01 Oct 19:36:29 19:39:26 19° 66° (ENE) 19:42:24 437.405
CINEMA 3 01 Oct 19:39:03 19:43:22 59° 75° (ENE) 19:47:34 145.822/145.860
